Murray, KY

8:07 AM CST on December 07, 2019 (GMT -0600)
Kyle-Oakley

Weather History for KCEY - October, 2019

Change the Weather History Date:

Sunday, October 20, 2019

  Actual Average (WUND) Record (WUND)
Temperature  
Mean Temperature 66 °F -  
Max Temperature 75 °F - - (-1)
Min Temperature 57 °F - - (-1)
Cooling Degree Days 1    
Growing Degree Days 16 (Base 50)    
Moisture  
Dew Point 56 °F    
Average Humidity 78    
Maximum Humidity 100    
Minimum Humidity 38    
Precipitation  
Precipitation 0.00 in - - ()
Sea Level Pressure  
Sea Level Pressure 29.87 in    
Wind  
Wind Speed 4 mph (South)    
Max Wind Speed 9 mph    
Max Gust Speed -    
Visibility 10 miles    
Events      
Averages and records for this station are not official NWS values.
T = Trace of Precipitation, MM = Missing Value Source: NWS Daily Summary

Daily Weather History Graph

Daily Weather History Graph

Search for Another Location

Airport or City:

Astronomy

Oct. 20, 2019 Rise Set
Actual Time 7:05 AM CDT 6:10 PM CDT
Civil Twilight 6:39 AM CDT 6:36 PM CDT
Nautical Twilight 6:08 AM CDT 7:07 PM CDT
Astronomical Twilight 5:38 AM CDT 7:36 PM CDT
Moon 11:25 PM CDT (10/20) 1:26 PM CDT (10/20)
Length of Visible Light 11h 57m
Length of Day
11h 05m
Waning Gibbous, 59% of the Moon is Illuminated
Oct 20
Waning Gibbous
Oct 21
Last Quarter
Oct 27
New
Nov 4
First Quarter
Nov 12
Full

Hourly Weather History & Observations

Time (CDT) Temp. Dew Point Humidity Pressure Visibility Wind Dir Wind Speed Gust Speed Precip Events Conditions
12:15 AM 59.0 °F 59.0 °F 100% 29.82 in 10.0 mi South 8.1 mph - N/A   Unknown
12:35 AM 59.0 °F 59.0 °F 100% 29.81 in 10.0 mi SSW 5.8 mph - N/A   Unknown
12:55 AM 59.0 °F 59.0 °F 100% 29.81 in 10.0 mi South 4.6 mph - N/A   Unknown
1:15 AM 59.0 °F 59.0 °F 100% 29.81 in 10.0 mi South 4.6 mph - N/A   Unknown
1:35 AM 59.0 °F 59.0 °F 100% 29.82 in 10.0 mi SW 9.2 mph - N/A   Overcast
1:55 AM 59.0 °F 59.0 °F 100% 29.82 in 10.0 mi SSW 8.1 mph - N/A   Unknown
2:15 AM 59.0 °F 59.0 °F 100% 29.82 in 10.0 mi SSW 6.9 mph - N/A   Unknown
2:35 AM 59.0 °F 59.0 °F 100% 29.82 in 10.0 mi SSW 3.5 mph - N/A   Unknown
2:55 AM 59.0 °F 59.0 °F 100% 29.82 in 10.0 mi SW 3.5 mph - N/A   Overcast
3:15 AM 59.0 °F 59.0 °F 100% 29.82 in 10.0 mi SW 4.6 mph - N/A   Overcast
3:35 AM 59.0 °F 59.0 °F 100% 29.83 in 10.0 mi SW 5.8 mph - N/A   Overcast
3:55 AM 59.0 °F 59.0 °F 100% 29.83 in 10.0 mi West 5.8 mph - N/A   Overcast
4:15 AM 59.0 °F 59.0 °F 100% 29.84 in 10.0 mi West 8.1 mph - N/A   Overcast
4:35 AM 59.0 °F 59.0 °F 100% 29.84 in 10.0 mi WSW 5.8 mph - N/A   Overcast
4:55 AM 59.0 °F 59.0 °F 100% 29.85 in 10.0 mi WNW 4.6 mph - N/A   Overcast
5:15 AM 59.0 °F 59.0 °F 100% 29.86 in 10.0 mi NW 4.6 mph - N/A   Overcast
5:35 AM 59.0 °F 59.0 °F 100% 29.86 in 10.0 mi NNW 3.5 mph - N/A   Overcast
5:55 AM 57.2 °F 57.2 °F 100% 29.86 in 10.0 mi Calm Calm - N/A   Overcast
6:15 AM 57.2 °F 57.2 °F 100% 29.87 in 10.0 mi Calm Calm - N/A   Overcast
6:35 AM 57.2 °F 57.2 °F 100% 29.88 in 10.0 mi Calm Calm - N/A   Overcast
6:55 AM 57.2 °F 57.2 °F 100% 29.88 in 10.0 mi Calm Calm - N/A   Overcast
7:15 AM 57.2 °F 57.2 °F 100% 29.88 in 10.0 mi Calm Calm - N/A   Overcast
7:35 AM 57.2 °F 57.2 °F 100% 29.88 in 10.0 mi Calm Calm - N/A   Overcast
7:55 AM 57.2 °F 57.2 °F 100% 29.89 in 10.0 mi South 3.5 mph - N/A   Overcast
8:15 AM 57.2 °F 57.2 °F 100% 29.90 in 9.0 mi South 3.5 mph - N/A   Scattered Clouds
8:35 AM 57.2 °F 57.2 °F 100% 29.91 in 10.0 mi Calm Calm - N/A   Clear
8:55 AM 59.0 °F 59.0 °F 100% 29.91 in 10.0 mi SSE 4.6 mph - N/A   Clear
9:15 AM 62.6 °F 59.0 °F 88% 29.92 in 10.0 mi SW 3.5 mph - N/A   Clear
9:35 AM 64.4 °F 57.2 °F 77% 29.92 in 10.0 mi South 3.5 mph - N/A   Scattered Clouds
9:55 AM 64.4 °F 55.4 °F 73% 29.91 in 10.0 mi SSE 3.5 mph - N/A   Mostly Cloudy
10:15 AM 66.2 °F 55.4 °F 68% 29.91 in 10.0 mi Calm Calm - N/A   Partly Cloudy
10:35 AM 66.2 °F 53.6 °F 64% 29.91 in 10.0 mi East 5.8 mph - N/A   Clear
10:55 AM 68.0 °F 53.6 °F 60% 29.92 in 10.0 mi ESE 4.6 mph - N/A   Partly Cloudy
11:15 AM 68.0 °F 51.8 °F 56% 29.92 in 10.0 mi Calm Calm - N/A   Clear
11:35 AM 69.8 °F 50.0 °F 49% 29.92 in 10.0 mi ENE 3.5 mph - N/A   Partly Cloudy
11:55 AM 71.6 °F 50.0 °F 46% 29.92 in 10.0 mi SW 5.8 mph - N/A   Scattered Clouds
12:15 PM 71.6 °F 50.0 °F 46% 29.92 in 10.0 mi SSE 5.8 mph - N/A   Mostly Cloudy
12:35 PM 71.6 °F 50.0 °F 46% 29.91 in 10.0 mi Calm Calm - N/A   Overcast
12:55 PM 71.6 °F 48.2 °F 43% 29.90 in 10.0 mi Calm Calm - N/A   Mostly Cloudy
1:15 PM 73.4 °F 50.0 °F 44% 29.90 in 10.0 mi SE 4.6 mph - N/A   Mostly Cloudy
1:35 PM 73.4 °F 48.2 °F 41% 29.89 in 10.0 mi Calm Calm - N/A   Overcast
1:55 PM 73.4 °F 50.0 °F 44% 29.88 in 10.0 mi ENE 5.8 mph - N/A   Overcast
2:15 PM 75.2 °F 50.0 °F 41% 29.87 in 10.0 mi SSE 4.6 mph - N/A   Scattered Clouds
2:35 PM 73.4 °F 48.2 °F 41% 29.87 in 10.0 mi Calm Calm - N/A   Clear
2:55 PM 75.2 °F 50.0 °F 41% 29.87 in 10.0 mi ESE 4.6 mph - N/A   Clear
3:15 PM 75.2 °F 48.2 °F 38% 29.87 in 10.0 mi East 4.6 mph - N/A   Clear
3:35 PM 75.2 °F 50.0 °F 41% 29.87 in 10.0 mi South 6.9 mph - N/A   Clear
3:55 PM 75.2 °F 50.0 °F 41% 29.87 in 10.0 mi South 5.8 mph - N/A   Clear
4:15 PM 75.2 °F 50.0 °F 41% 29.87 in 10.0 mi SE 3.5 mph - N/A   Clear
4:35 PM 75.2 °F 50.0 °F 41% 29.87 in 10.0 mi SSE 5.8 mph - N/A   Clear
4:55 PM 73.4 °F 51.8 °F 47% 29.86 in 10.0 mi ESE 4.6 mph - N/A   Clear
5:15 PM 73.4 °F 53.6 °F 50% 29.86 in 10.0 mi SSE 3.5 mph - N/A   Clear
5:35 PM 71.6 °F 53.6 °F 53% 29.86 in 10.0 mi SE 3.5 mph - N/A   Clear
5:55 PM 71.6 °F 53.6 °F 53% 29.86 in 10.0 mi Calm Calm - N/A   Clear
6:15 PM 66.2 °F 55.4 °F 68% 29.86 in 10.0 mi East 3.5 mph - N/A   Clear
6:35 PM 64.4 °F 55.4 °F 73% 29.86 in 10.0 mi Calm Calm - N/A   Clear
6:55 PM 64.4 °F 55.4 °F 73% 29.86 in 10.0 mi Calm Calm - N/A   Unknown
7:15 PM 62.6 °F 57.2 °F 82% 29.87 in 10.0 mi Calm Calm - N/A   Clear
7:35 PM 62.6 °F 57.2 °F 82% 29.86 in 10.0 mi Calm Calm - N/A   Clear
7:55 PM 62.6 °F 57.2 °F 82% 29.87 in 10.0 mi Calm Calm - N/A   Unknown
8:15 PM 60.8 °F 57.2 °F 88% 29.87 in 10.0 mi Calm Calm - N/A   Clear
8:35 PM 60.8 °F 57.2 °F 88% 29.87 in 10.0 mi Calm Calm - N/A   Unknown
8:55 PM 60.8 °F 57.2 °F 88% 29.87 in 10.0 mi ESE 3.5 mph - N/A   Mostly Cloudy
9:15 PM 60.8 °F 57.2 °F 88% 29.87 in 10.0 mi Calm Calm - N/A   Mostly Cloudy
9:35 PM 62.6 °F 57.2 °F 82% 29.88 in 10.0 mi Calm Calm - N/A   Mostly Cloudy
9:55 PM 62.6 °F 59.0 °F 88% 29.87 in 10.0 mi Calm Calm - N/A   Overcast
10:15 PM 62.6 °F 59.0 °F 88% 29.87 in 10.0 mi Calm Calm - N/A   Mostly Cloudy
10:35 PM 62.6 °F 59.0 °F 88% 29.87 in 10.0 mi ESE 4.6 mph - N/A   Scattered Clouds
10:55 PM 62.6 °F 59.0 °F 88% 29.87 in 10.0 mi East 3.5 mph - N/A   Overcast
11:15 PM 62.6 °F 60.8 °F 94% 29.86 in 10.0 mi Calm Calm - N/A   Overcast
11:35 PM 62.6 °F 60.8 °F 94% 29.85 in 10.0 mi Calm Calm - N/A   Mostly Cloudy
11:55 PM 62.6 °F 60.8 °F 94% 29.83 in 10.0 mi SE 6.9 mph - N/A   Mostly Cloudy